Location: Sungai Bunut
(2.6333°N, 113.7333°E)
Time: 20:35:02
(UTC+00:00)

Vanguard 3 - Pass Details

Date: 06 December 2023
Orbit: 508 x 3239 km, 33.4° (Epoch: 24 February)

Event Time Altitude Azimuth Distance (km) Brightness Sun altitude
Rises 20:31:59 0° 327° (NNW) 2,749 - -25.0°
Reaches altitude 10° 20:34:51 10° 348° (NNW) 1,732 - -24.3°
Exits shadow 20:37:20 18° 31° (NNE) 1,294 8.2 -23.8°
Maximum altitude 20:37:27 18° 33° (NNE) 1,293 8.3 -23.8°
Drops below altitude 10° 20:40:06 10° 79° (ENE) 1,763 9.6 -23.1°
Sets 20:43:02 0° 99° (E) 2,820 11.3 -22.5°
